[{"OBJECT_NAME":"GLOBALSTAR M094","OBJECT_ID":"2013-005C","EPOCH":"2026-09-12T05:43:29.713440","MEAN_MOTION":12.62264794,"ECCENTRICITY":0.00003332,"INCLINATION":51.9938,"RA_OF_ASC_NODE":245.7553,"ARG_OF_PERICENTER":113.7435,"MEAN_ANOMALY":246.3466,"EPHEMERIS_TYPE":0,"CLASSIFICATION_TYPE":"U","NORAD_CAT_ID":39074,"ELEMENT_SET_NO":999,"REV_AT_EPOCH":62946,"BSTAR":-0.000082797575,"MEAN_MOTION_DOT":-0.00000119,"MEAN_MOTION_DDOT":0},{"OBJECT_NAME":"GLOBALSTAR M096","OBJECT_ID":"2013-005D","EPOCH":"2026-09-12T02:14:35.988576","MEAN_MOTION":12.62264437,"ECCENTRICITY":0.00005539,"INCLINATION":52.0077,"RA_OF_ASC_NODE":295.0667,"ARG_OF_PERICENTER":115.561,"MEAN_ANOMALY":244.5314,"EPHEMERIS_TYPE":0,"CLASSIFICATION_TYPE":"U","NORAD_CAT_ID":39075,"ELEMENT_SET_NO":999,"REV_AT_EPOCH":62836,"BSTAR":0.00012005102,"MEAN_MOTION_DOT":-8.2e-7,"MEAN_MOTION_DDOT":0},{"OBJECT_NAME":"GLOBALSTAR M078","OBJECT_ID":"2013-005E","EPOCH":"2026-09-12T07:18:32.388192","MEAN_MOTION":12.62259844,"ECCENTRICITY":0.00015544,"INCLINATION":51.9901,"RA_OF_ASC_NODE":18.3139,"ARG_OF_PERICENTER":99.245,"MEAN_ANOMALY":260.8592,"EPHEMERIS_TYPE":0,"CLASSIFICATION_TYPE":"U","NORAD_CAT_ID":39076,"ELEMENT_SET_NO":999,"REV_AT_EPOCH":62701,"BSTAR":-0.00018757401,"MEAN_MOTION_DOT":-0.00000137,"MEAN_MOTION_DDOT":0},{"OBJECT_NAME":"GLOBALSTAR M095","OBJECT_ID":"2013-005F","EPOCH":"2026-09-12T07:56:46.626144","MEAN_MOTION":12.62264461,"ECCENTRICITY":0.00010667,"INCLINATION":52.0104,"RA_OF_ASC_NODE":15.9585,"ARG_OF_PERICENTER":113.9942,"MEAN_ANOMALY":246.1037,"EPHEMERIS_TYPE":0,"CLASSIFICATION_TYPE":"U","NORAD_CAT_ID":39077,"ELEMENT_SET_NO":999,"REV_AT_EPOCH":62687,"BSTAR":-0.000040241461,"MEAN_MOTION_DOT":-0.00000111,"MEAN_MOTION_DDOT":0},{"OBJECT_NAME":"GLOBALSTAR M087","OBJECT_ID":"2022-064A","EPOCH":"2026-09-12T02:33:35.987328","MEAN_MOTION":12.62262876,"ECCENTRICITY":0.00007127,"INCLINATION":51.9988,"RA_OF_ASC_NODE":157.8325,"ARG_OF_PERICENTER":88.894,"MEAN_ANOMALY":271.2009,"EPHEMERIS_TYPE":0,"CLASSIFICATION_TYPE":"U","NORAD_CAT_ID":52888,"ELEMENT_SET_NO":999,"REV_AT_EPOCH":20211,"BSTAR":0.00015481808,"MEAN_MOTION_DOT":-7.6e-7,"MEAN_MOTION_DDOT":0},{"OBJECT_NAME":"GLOBALSTAR M098","OBJECT_ID":"2026-185A","EPOCH":"2026-09-11T22:42:47.629440","MEAN_MOTION":14.63730854,"ECCENTRICITY":0.00098017,"INCLINATION":51.9955,"RA_OF_ASC_NODE":122.3662,"ARG_OF_PERICENTER":319.9135,"MEAN_ANOMALY":40.1098,"EPHEMERIS_TYPE":0,"CLASSIFICATION_TYPE":"U","NORAD_CAT_ID":100325,"ELEMENT_SET_NO":999,"REV_AT_EPOCH":394,"BSTAR":0.000077050016,"MEAN_MOTION_DOT":0.0000021,"MEAN_MOTION_DDOT":0},{"OBJECT_NAME":"GLOBALSTAR M102","OBJECT_ID":"2026-185B","EPOCH":"2026-09-12T00:20:14.744256","MEAN_MOTION":14.63765269,"ECCENTRICITY":0.00096131,"INCLINATION":51.9959,"RA_OF_ASC_NODE":122.0715,"ARG_OF_PERICENTER":320.6079,"MEAN_ANOMALY":39.4177,"EPHEMERIS_TYPE":0,"CLASSIFICATION_TYPE":"U","NORAD_CAT_ID":100326,"ELEMENT_SET_NO":999,"REV_AT_EPOCH":394,"BSTAR":0.000078403689,"MEAN_MOTION_DOT":0.00000218,"MEAN_MOTION_DDOT":0},{"OBJECT_NAME":"GLOBALSTAR M099","OBJECT_ID":"2026-185C","EPOCH":"2026-09-12T00:19:12.563904","MEAN_MOTION":14.63798596,"ECCENTRICITY":0.00095109,"INCLINATION":51.9951,"RA_OF_ASC_NODE":122.0619,"ARG_OF_PERICENTER":320.3452,"MEAN_ANOMALY":39.6809,"EPHEMERIS_TYPE":0,"CLASSIFICATION_TYPE":"U","NORAD_CAT_ID":100327,"ELEMENT_SET_NO":999,"REV_AT_EPOCH":395,"BSTAR":0.000074796107,"MEAN_MOTION_DOT":0.00000199,"MEAN_MOTION_DDOT":0},{"OBJECT_NAME":"GLOBALSTAR M104","OBJECT_ID":"2026-185D","EPOCH":"2026-09-11T10:38:05.932608","MEAN_MOTION":14.48491082,"ECCENTRICITY":0.00091535,"INCLINATION":51.9883,"RA_OF_ASC_NODE":124.9635,"ARG_OF_PERICENTER":327.5937,"MEAN_ANOMALY":32.445,"EPHEMERIS_TYPE":0,"CLASSIFICATION_TYPE":"U","NORAD_CAT_ID":100328,"ELEMENT_SET_NO":999,"REV_AT_EPOCH":385,"BSTAR":0.00005047239,"MEAN_MOTION_DOT":1.9e-7,"MEAN_MOTION_DDOT":0},{"OBJECT_NAME":"GLOBALSTAR M106","OBJECT_ID":"2026-185E","EPOCH":"2026-09-11T22:39:01.021248","MEAN_MOTION":14.63875281,"ECCENTRICITY":0.00091069,"INCLINATION":51.9958,"RA_OF_ASC_NODE":122.354,"ARG_OF_PERICENTER":320.0566,"MEAN_ANOMALY":39.9719,"EPHEMERIS_TYPE":0,"CLASSIFICATION_TYPE":"U","NORAD_CAT_ID":100329,"ELEMENT_SET_NO":999,"REV_AT_EPOCH":393,"BSTAR":0.000079163594,"MEAN_MOTION_DOT":0.00000223,"MEAN_MOTION_DDOT":0},{"OBJECT_NAME":"GLOBALSTAR M101","OBJECT_ID":"2026-185F","EPOCH":"2026-09-08T20:54:03.492864","MEAN_MOTION":14.63906749,"ECCENTRICITY":0.00088367,"INCLINATION":51.9961,"RA_OF_ASC_NODE":135.5663,"ARG_OF_PERICENTER":308.9465,"MEAN_ANOMALY":51.0704,"EPHEMERIS_TYPE":0,"CLASSIFICATION_TYPE":"U","NORAD_CAT_ID":100330,"ELEMENT_SET_NO":999,"REV_AT_EPOCH":348,"BSTAR":0.00008328469,"MEAN_MOTION_DOT":0.00000245,"MEAN_MOTION_DDOT":0},{"OBJECT_NAME":"GLOBALSTAR M105","OBJECT_ID":"2026-185G","EPOCH":"2026-09-12T01:53:37.338432","MEAN_MOTION":14.63938712,"ECCENTRICITY":0.00087993,"INCLINATION":51.995,"RA_OF_ASC_NODE":121.7529,"ARG_OF_PERICENTER":320.0095,"MEAN_ANOMALY":40.0213,"EPHEMERIS_TYPE":0,"CLASSIFICATION_TYPE":"U","NORAD_CAT_ID":100331,"ELEMENT_SET_NO":999,"REV_AT_EPOCH":395,"BSTAR":0.000077132591,"MEAN_MOTION_DOT":0.00000212,"MEAN_MOTION_DDOT":0},{"OBJECT_NAME":"GLOBALSTAR M100","OBJECT_ID":"2026-185H","EPOCH":"2026-09-12T00:13:59.033856","MEAN_MOTION":14.63999211,"ECCENTRICITY":0.00085491,"INCLINATION":51.9954,"RA_OF_ASC_NODE":122.0436,"ARG_OF_PERICENTER":319.2775,"MEAN_ANOMALY":40.7542,"EPHEMERIS_TYPE":0,"CLASSIFICATION_TYPE":"U","NORAD_CAT_ID":100332,"ELEMENT_SET_NO":999,"REV_AT_EPOCH":394,"BSTAR":0.000079115886,"MEAN_MOTION_DOT":0.00000223,"MEAN_MOTION_DDOT":0}]